Find STARLINK-38128

NORAD ID: 799501178 Int'l Des: 2026-160A Constellation: starlink operational

当前视图

正在加载3D地球...

About STARLINK-38128

STARLINK-38128 (NORAD 799501178) is a starlink constellation satellite launched Jul 9, 2026

关于 STARLINK-38128

正在加载描述...

即将过境

Passes for default location (London). Set your location on the main map for personalized predictions.

高度历史

Loading altitude history...

两行轨道根数

1 99999C 2026160A 26195.39076389 .00432230 00000-0 570640-4 0 1958
2 99999 70.0029 28.6104 0009688 260.2283 328.7962 16.06235672 16
Epoch: Jul 14, 2026 • Age: 8 hours